Вернуться в каталог

SES 20

АктивенСвязьGEO
NORAD 53960·PAYLOAD·🇱🇺 Luxembourg

Запущен Oct 4, 2022 с Cape Canaveral Space Force Station

Loading…

TLE

СвежийSource: CelesTrak SupGP

Эпоха: Sep 13, 2026, 23:30 UTC

1 53960C 22123A   26256.97916667 -.00000011  00000+0  00000+0 0  2562
2 53960   0.0241  93.4143 0001999  16.5265 132.4224  1.00273342    10

Отслеживайте SES 20 в реальном времени с AllMySat

Download on the App Store